"TOA5","AWS1","CR1000","7964","CR1000.Std.14","CPU:AWS1_114.CR1","64363","TBL110"
"TIMESTAMP","RECORD","Wind_spd_WVc(1)","Wind_spd_WVc(2)","Air_Temp_Avg","Humidity_Avg","SW_upper_Wm2_Avg","Rain_Tot","Press_Avg","Issui_Tot","Depth_cm","SR50A_Raw","Quality","Ground_Temp_Avg(1)","Ground_Temp_Avg(2)","SW_lower_Wm2_Avg","Albedo_Avg","SWC_per(1)","SWC_per(2)","Period(1)","Period(2)"
"TS","RN","","","","","","","","","","","","","","","","","","",""
"","","WVc","WVc","Avg","Avg","Avg","Tot","Avg","Tot","Smp","Smp","Smp","Avg","Avg","Avg","Avg","Smp","Smp","Smp","Smp"
"2017-04-28 00:00:00",285613,0.122,194.8,-0.066,63.08,0,0,858.4809,0,-4.031,3.217,189,5.221,4.314,0.1365296,0,52.72,61.28,33.96,35.97
"2017-04-28 00:10:00",285614,0.524,179.3,0.729,57.81,0,0,858.4809,0,-4.785,3.223,196,5.208,4.303,0.534739,0,52.66,61.28,33.95,35.97
"2017-04-28 00:20:00",285615,0.482,168.4,1.177,54.9,0,0,858.3987,0,-5.508,3.227,180,5.184,4.337,0.6371821,0,52.72,61.34,33.96,35.98
"2017-04-28 00:30:00",285616,0.475,174,1.008,55.66,0,0,858.2828,0,-5.187,3.227,190,5.145,4.342,0.07206812,0,52.72,61.34,33.96,35.98
"2017-04-28 00:40:00",285617,0.482,187.5,1.006,55.73,0,0,858.2322,0,-5.317,3.227,196,5.118,4.349,0.1289702,0,52.66,61.28,33.95,35.97
"2017-04-28 00:50:00",285618,0.36,178.8,0.674,58.23,0,0,858.131,0,-4.588,3.222,192,5.062,4.33,0.007586576,0,52.66,61.22,33.95,35.96
"2017-04-28 01:00:00",285619,0.321,188.7,1.088,56.68,0,0,857.989,0,-4.57,3.217,194,5.069,4.32,0.3831207,0,52.66,61.28,33.95,35.97
"2017-04-28 01:10:00",285620,0.364,160.4,1.231,56.79,0,0,857.9905,0,-5.267,3.228,189,4.99,4.307,0.2882889,0,52.72,61.28,33.96,35.97
"2017-04-28 01:20:00",285621,0.477,162.2,0.496,60.16,0,0,858.0026,0,-4.809,3.226,186,4.99,4.288,0,0,52.72,61.28,33.96,35.97
"2017-04-28 01:30:00",285622,0.446,186.9,0.327,60.75,0,0,857.9591,0,-5.051,3.232,186,4.96,4.28,0.01517285,0,52.72,61.28,33.96,35.97
"2017-04-28 01:40:00",285623,0.335,164.5,-0.075,62.81,0,0,858.0013,0,-5.005,3.231,187,4.947,4.304,0.04931246,0,52.66,61.28,33.95,35.97
"2017-04-28 01:50:00",285624,0.524,168.2,-0.124,62.87,0,0,857.9549,0,-4.857,3.23,186,4.881,4.311,0.04552033,0,52.72,61.28,33.96,35.97
"2017-04-28 02:00:00",285625,0.306,196.8,0.058,61.18,0,0,857.9862,0,-4.735,3.228,187,4.839,4.314,0.1479424,0,52.66,61.22,33.95,35.96
"2017-04-28 02:10:00",285626,0.469,186.3,-0.015,61.6,0,0,857.8908,0,-4.661,3.227,191,4.802,4.316,0.2465723,0,52.66,61.22,33.95,35.96
"2017-04-28 02:20:00",285627,0.28,309.5,0.287,58.65,0,0,857.9436,0,-5.097,3.226,189,4.777,4.316,0.3489952,0,52.66,61.22,33.95,35.96
"2017-04-28 02:30:00",285628,0.287,238,0.538,56.64,0,0,857.8376,0,-4.521,3.22,186,4.74,4.318,0.2731267,0,52.6,61.22,33.94,35.96
"2017-04-28 02:40:00",285629,0.667,300.5,1.241,51.76,0,0,857.8148,0,-6.204,3.234,177,4.674,4.316,0.6524695,0,52.66,61.22,33.95,35.96
"2017-04-28 02:50:00",285630,0.473,292.4,1.239,51.98,0,0,857.8171,0,-5.599,3.23,189,4.665,4.316,0.1175962,0,52.66,61.16,33.95,35.94
"2017-04-28 03:00:00",285631,0.216,59.99,0.714,54.42,0,0,857.815,0,-5.342,3.231,173,4.63,4.318,0.01896713,0,52.66,61.16,33.95,35.94
"2017-04-28 03:10:00",285632,0.345,267.4,0.636,54.47,0,0,857.81,0,-4.915,3.228,194,4.624,4.336,0.06069483,0,52.66,61.16,33.95,35.94
"2017-04-28 03:20:00",285633,0.111,184.8,0.035,57.34,0,0,857.8049,0,-5.057,3.232,189,4.587,4.351,0,0,52.66,61.16,33.95,35.94
"2017-04-28 03:30:00",285634,0.227,259.4,-0.192,58.01,0,0,857.8069,0,-4.965,3.228,178,4.519,4.302,0.04552077,0,52.66,61.16,33.95,35.94
"2017-04-28 03:40:00",285635,0.603,159.8,0.848,52.96,0,0,857.8048,0,-6.277,3.236,193,4.49,4.276,0.7245411,0,52.66,61.16,33.95,35.94
"2017-04-28 03:50:00",285636,0.55,271.1,1.311,49.87,0,0,857.795,0,-6.029,3.232,182,4.413,4.284,0.4400369,0,52.66,61.16,33.95,35.94
"2017-04-28 04:00:00",285637,0.323,161.4,0.909,51.98,0,0,857.6124,0,-5.523,3.23,187,4.388,4.277,0.007586849,0,52.66,61.16,33.95,35.94
"2017-04-28 04:10:00",285638,0.659,154.9,0.589,53.4,0,0,857.562,0,-5.597,3.231,187,4.418,4.267,0.03793427,0,52.66,61.1,33.95,35.93
"2017-04-28 04:20:00",285639,0.593,146.1,1.212,49.46,0,0,857.5591,0,-6.028,3.232,187,4.32,4.274,0.3034741,0,52.66,61.1,33.95,35.93
"2017-04-28 04:30:00",285640,0.681,207.5,1.194,49.67,0,0,857.5408,0,-6.124,3.235,179,4.313,4.264,0.07207443,0,52.66,61.1,33.95,35.93
"2017-04-28 04:40:00",285641,0.399,235.3,1.108,49.82,0,0,857.5212,0,-6.178,3.234,187,4.296,4.254,0.09104162,0,52.66,61.1,33.95,35.93
"2017-04-28 04:50:00",285642,0.293,25.5,1.358,48.46,0,0,857.5212,0,-5.625,3.228,185,4.264,4.264,0.1858752,0,52.6,61.1,33.94,35.93
"2017-04-28 05:00:00",285643,0.738,169.8,1.339,49.06,0,0,857.5769,0,-5.82,3.232,192,4.224,4.233,0.2200127,0,52.66,61.1,33.95,35.93
"2017-04-28 05:10:00",285644,0.561,38.2,1.316,48.7,0.9795544,0,857.7259,0,-6.115,3.232,178,4.217,4.213,0.917934,0.583,52.6,61.1,33.94,35.93
"2017-04-28 05:20:00",285645,0.486,56.66,1.614,47.86,5.424869,0,857.7316,0,-6.188,3.234,184,4.15,4.212,2.162034,0.414,52.66,61.04,33.95,35.92
"2017-04-28 05:30:00",285646,0.323,23.57,1.233,51.07,9.940804,0,857.8236,0,-5.257,3.225,190,4.107,4.224,2.829553,0.285,52.66,61.04,33.95,35.92
"2017-04-28 05:40:00",285647,0.474,163,1.287,52.12,15.03876,0,857.7813,0,-5.907,3.231,174,4.037,4.235,4.084947,0.272,52.66,61.04,33.95,35.92
"2017-04-28 05:50:00",285648,0.465,167.6,0.892,56.74,21.02584,0,857.8615,0,-5.549,3.231,185,4.069,4.217,5.06728,0.242,52.66,61.04,33.95,35.92
"2017-04-28 06:00:00",285649,0.27,176.1,1.013,58.96,44.47026,0,857.9689,0,-5.626,3.229,182,4.007,4.152,10.16476,0.248,52.6,61.04,33.94,35.92
"2017-04-28 06:10:00",285650,0.376,196.6,1.629,56.49,129.7897,0,857.9795,0,-5.908,3.227,184,3.947,4.147,25.85142,0.206,52.66,61.04,33.95,35.92
"2017-04-28 06:20:00",285651,0.58,200.8,2.066,55.77,120.0539,0,857.9774,0,-6.11,3.229,178,3.921,4.176,29.12075,0.271,52.66,61.04,33.95,35.92
"2017-04-28 06:30:00",285652,0.573,145.3,2.269,57.38,121.3221,0,857.9795,0,-5.829,3.224,187,3.866,4.156,35.19999,0.331,52.66,61.04,33.95,35.92
"2017-04-28 06:40:00",285653,0.579,170.9,2.613,55.83,137.508,0,857.9774,0,-5.596,3.22,191,3.827,4.158,33.49126,0.299,52.6,61.1,33.94,35.93
"2017-04-28 06:50:00",285654,0.573,174.6,2.812,55.77,94.37952,0,858.0616,0,-5.238,3.216,188,3.863,4.147,31.98402,0.419,52.66,60.98,33.95,35.9
"2017-04-28 07:00:00",285655,0.477,294.6,2.817,52.29,140.1334,0,858.1945,0,-5.287,3.216,194,3.836,4.132,33.63665,0.313,52.66,61.04,33.95,35.92
"2017-04-28 07:10:00",285656,0.529,138,3.07,52.4,88.4175,0,858.2239,0,-5.037,3.21,194,3.796,4.103,34.89914,0.428,52.6,61.04,33.94,35.92
"2017-04-28 07:20:00",285657,0.667,292.4,3.367,49.57,78.27409,0,858.2303,0,-4.985,3.211,192,3.774,4.082,32.88921,0.424,52.66,61.04,33.95,35.92
"2017-04-28 07:30:00",285658,0.464,165.7,3.695,49.34,66.28632,0,858.2451,0,-5.995,3.216,189,3.741,4.056,30.41671,0.46,52.6,60.98,33.94,35.9
"2017-04-28 07:40:00",285659,1.079,304.8,3.616,47.82,71.19074,0,858.2556,0,-5.64,3.217,190,3.724,4.054,32.98019,0.471,52.6,60.98,33.94,35.9
"2017-04-28 07:50:00",285660,0.545,312.8,3.473,46.47,316.9701,0,858.3237,0,-5.792,3.217,188,3.708,4.054,49.05505,0.254,52.66,61.04,33.95,35.92
"2017-04-28 08:00:00",285661,0.49,338.9,4.007,46.22,620.739,0,858.2961,0,-5.942,3.215,182,3.706,4.054,89.65708,0.144,52.6,60.98,33.94,35.9
"2017-04-28 08:10:00",285662,0.554,317.7,4.469,46.85,658.0018,0,858.2352,0,-5.63,3.209,181,3.689,4.003,116.4577,0.177,52.6,60.98,33.94,35.9
"2017-04-28 08:20:00",285663,0.569,322.5,4.729,45.85,693.1053,0,858.3771,0,-5.862,3.213,174,3.607,4.01,126.9498,0.183,52.6,60.98,33.94,35.9
"2017-04-28 08:30:00",285664,0.51,295,4.359,45.92,717.4709,0,858.3978,0,-6.254,3.216,183,3.595,4.027,130.9811,0.183,52.66,60.98,33.95,35.9
"2017-04-28 08:40:00",285665,0.794,283.6,4.266,46.84,516.6171,0,858.387,0,-6.546,3.221,184,3.579,4.044,120.6241,0.273,52.66,60.98,33.95,35.9
"2017-04-28 08:50:00",285666,0.82,334,4,45.58,469.8049,0,858.3293,0,-5.723,3.213,194,3.581,3.948,110.2459,0.282,52.6,60.92,33.94,35.89
"2017-04-28 09:00:00",285667,0.491,279.4,4.705,47.8,830.6456,0,858.3283,0,-6.458,3.217,181,3.428,3.848,130.8024,0.157,52.66,60.92,33.95,35.89
"2017-04-28 09:10:00",285668,0.395,308.1,5.146,46.79,883.9066,0,858.3402,0,-5.464,3.202,195,3.382,3.832,145.0482,0.164,52.66,60.92,33.95,35.89
"2017-04-28 09:20:00",285669,0.711,353.9,5.553,44.48,929.7678,0,858.3901,0,-5.308,3.198,206,3.362,3.852,151.5805,0.163,52.66,60.92,33.95,35.89
"2017-04-28 09:30:00",285670,0.798,297.4,5.456,41.29,925.1782,0,858.3583,0,-5.234,3.201,196,3.36,3.871,148.9033,0.161,52.66,60.98,33.95,35.9
"2017-04-28 09:40:00",285671,0.552,325.1,5.481,40.74,955.2808,0,858.4384,0,-6.091,3.208,204,3.357,3.859,154.39,0.162,52.6,60.92,33.94,35.89
"2017-04-28 09:50:00",285672,0.877,353.7,5.696,42.33,981.0861,0,858.5226,0,-4.501,3.193,204,3.361,3.843,163.9129,0.167,52.6,60.92,33.94,35.89
"2017-04-28 10:00:00",285673,0.543,281,6.099,44.22,1019.796,0,858.5163,0,-5.482,3.198,197,3.357,3.842,177.4075,0.174,52.6,60.92,33.94,35.89
"2017-04-28 10:10:00",285674,0.825,315.7,6.343,42.75,1016.13,0,858.4642,0,-5.3,3.195,193,3.353,3.822,180.3949,0.177,52.6,60.92,33.94,35.89
"2017-04-28 10:20:00",285675,0.555,286.8,6.692,41.24,1049.693,0,858.4984,0,-4.748,3.188,192,3.326,3.791,191.4372,0.182,52.6,60.92,33.94,35.89
"2017-04-28 10:30:00",285676,0.662,294.8,6.854,40.54,1069.907,0,858.3512,0,-5.317,3.194,203,3.321,3.746,200.524,0.187,52.6,60.92,33.94,35.89
"2017-04-28 10:40:00",285677,0.752,295,6.928,40.5,1092.432,0,858.2479,0,-4.973,3.187,182,3.352,3.698,207.2853,0.19,52.6,60.86,33.94,35.88
"2017-04-28 10:50:00",285678,0.766,294.8,7.389,39.62,1103.532,0,858.2273,0,-5.016,3.186,179,3.332,3.681,212.0037,0.192,52.55,60.92,33.92,35.89
"2017-04-28 11:00:00",285679,0.729,284.2,7.469,39.48,1113.669,0,858.2211,0,-5.25,3.193,195,3.395,3.686,215.7276,0.194,52.55,60.92,33.92,35.89
"2017-04-28 11:10:00",285680,0.779,308,7.264,37.22,1127.991,0,858.2131,0,-5.549,3.193,192,3.463,3.675,222.3027,0.197,52.55,60.92,33.92,35.89
"2017-04-28 11:20:00",285681,0.463,11.16,8.18,37.06,1118.253,0,858.0359,0,-4.917,3.176,190,3.547,3.616,221.4348,0.198,52.55,60.86,33.92,35.88
"2017-04-28 11:30:00",285682,0.507,279.8,8.68,35.9,1158.961,0,857.9664,0,-3.961,3.17,186,3.614,3.623,228.9051,0.198,52.6,60.92,33.94,35.89
"2017-04-28 11:40:00",285683,0.928,285.4,8.25,34.05,1159.927,0,857.9453,0,-4.807,3.182,194,3.73,3.619,229.7423,0.198,52.6,60.92,33.94,35.89
"2017-04-28 11:50:00",285684,0.593,292.6,8.84,35.15,1122.917,0,857.7369,0,-5.279,3.182,177,3.793,3.615,222.7,0.198,52.55,60.92,33.92,35.89
"2017-04-28 12:00:00",285685,1.072,338,8.25,34.06,1130.22,0,857.72,0,-4.719,3.176,182,3.911,3.621,224.7608,0.199,52.55,60.92,33.92,35.89
"2017-04-28 12:10:00",285686,0.588,26.54,9.42,33.06,1130.723,0,857.7137,0,-5.547,3.18,182,4.009,3.613,225.8821,0.2,52.55,60.92,33.92,35.89
"2017-04-28 12:20:00",285687,0.654,2.033,9.34,31.22,1122.492,0,857.7095,0,-5.681,3.184,182,4.092,3.614,222.4462,0.198,52.6,60.86,33.94,35.88
"2017-04-28 12:30:00",285688,0.728,111.9,9.04,31.38,1055.295,0,857.5811,0,-4.369,3.166,200,4.207,3.609,209.3464,0.198,52.55,60.86,33.92,35.88
"2017-04-28 12:40:00",285689,0.82,345.1,9.9,30.2,1121.4,0,857.5179,0,-4.991,3.176,196,4.312,3.594,219.8323,0.196,52.55,60.86,33.92,35.88
"2017-04-28 12:50:00",285690,0.807,258.6,9.07,30.71,1154.729,0,857.6422,0,-4.412,3.172,184,4.413,3.538,225.67,0.195,52.55,60.86,33.92,35.88
"2017-04-28 13:00:00",285691,0.514,227.3,10.05,31.37,1151.633,0,857.4548,0,-6.756,3.187,186,4.532,3.571,224.4615,0.195,52.55,60.86,33.92,35.88
"2017-04-28 13:10:00",285692,0.787,266.7,9.8,30.43,975.0349,0,857.4569,0,-5.247,3.179,181,4.634,3.551,186.7722,0.184,52.49,60.86,33.91,35.88
"2017-04-28 13:20:00",285693,0.656,341.5,9.24,30.98,718.0779,0,857.4358,0,-5.172,3.179,219,4.756,3.529,132.5623,0.174,52.49,60.86,33.91,35.88
"2017-04-28 13:30:00",285694,0.87,272.8,8.77,32.54,400.8311,0,857.4022,0,-5.897,3.192,206,4.867,3.553,69.99931,0.158,52.49,60.86,33.91,35.88
"2017-04-28 13:40:00",285695,0.589,132.6,8.62,32.02,781.0942,0,857.318,0,-5.341,3.177,190,5.002,3.557,148.454,0.184,52.44,60.86,33.89,35.88
"2017-04-28 13:50:00",285696,0.604,253.7,10.75,30.13,1100.085,0,857.2115,0,-5.523,3.172,197,5.1,3.536,202.3836,0.184,52.44,60.86,33.89,35.88
"2017-04-28 14:00:00",285697,0.971,345.6,10.44,27.06,953.5593,0,857.2115,0,-6.034,3.186,200,5.21,3.518,164.2321,0.169,52.44,60.86,33.89,35.88
"2017-04-28 14:10:00",285698,0.813,149.6,9.4,29.89,885.7142,0,857.0955,0,-4.813,3.174,179,5.34,3.508,143.3588,0.161,52.44,60.86,33.89,35.88
"2017-04-28 14:20:00",285699,0.888,114.2,10.12,30.18,1058.938,0,857.0359,0,-5.397,3.171,178,5.411,3.554,164.5389,0.155,52.44,60.8,33.89,35.86
"2017-04-28 14:30:00",285700,0.589,47.24,11.46,29.67,818.0852,0,856.9473,0,-5.777,3.174,189,5.534,3.535,117.9927,0.143,52.38,60.8,33.88,35.86
"2017-04-28 14:40:00",285701,0.631,259.6,10.36,29.75,766.785,0,856.9558,0,-5.153,3.172,183,5.627,3.549,102.6351,0.135,52.38,60.8,33.88,35.86
"2017-04-28 14:50:00",285702,0.453,310.1,9.87,31.14,506.2526,0,856.9537,0,-5.575,3.181,198,5.723,3.54,60.10062,0.119,52.38,60.8,33.88,35.86
"2017-04-28 15:00:00",285703,0.31,251.2,9.21,34.93,246.9264,0,856.9368,0,-6.015,3.189,194,5.807,3.574,36.6968,0.149,52.38,60.8,33.88,35.86
"2017-04-28 15:10:00",285704,0.228,249.7,8.66,37.82,219.2784,0,856.9326,0,-5.738,3.187,192,5.887,3.541,35.51107,0.161,52.38,60.8,33.88,35.86
"2017-04-28 15:20:00",285705,0.315,125.3,9.4,35.4,359.3611,0,856.8654,0,-5.211,3.175,180,5.998,3.565,55.90702,0.158,52.32,60.8,33.87,35.86
"2017-04-28 15:30:00",285706,0.312,266.2,9.7,34.52,298.8507,0,856.8282,0,-5.428,3.18,195,6.061,3.595,51.29728,0.172,52.32,60.8,33.87,35.86
"2017-04-28 15:40:00",285707,0.384,298.4,9.16,36.23,284.802,0,856.7993,0,-5.754,3.185,193,6.15,3.654,48.74377,0.171,52.32,60.8,33.87,35.86
"2017-04-28 15:50:00",285708,0.473,314.5,8.93,35.07,223.3285,0,856.8265,0,-6.027,3.19,193,6.274,3.697,37.43817,0.167,52.32,60.8,33.87,35.86
"2017-04-28 16:00:00",285709,0.193,206.3,8.83,36.71,191.2027,0,857.004,0,-5.042,3.178,187,6.345,3.737,32.8644,0.171,52.32,60.8,33.87,35.86
"2017-04-28 16:10:00",285710,0.665,258.6,9.19,36,187.7645,0,857.0077,0,-6.013,3.188,188,6.41,3.741,33.74121,0.18,52.27,60.8,33.85,35.86
"2017-04-28 16:20:00",285711,0.599,311.1,9.09,34.96,173.4106,0,857.0307,0,-5.683,3.184,202,6.468,3.745,31.2521,0.18,52.27,60.74,33.85,35.85
"2017-04-28 16:30:00",285712,0.552,304.4,9.19,36.52,156.3699,0,857.0523,0,-6.038,3.187,192,6.53,3.747,27.60675,0.177,52.27,60.74,33.85,35.85
"2017-04-28 16:40:00",285713,0.451,312.7,8.81,36.74,103.1345,0,857.0776,0,-5.896,3.19,196,6.567,3.76,17.15903,0.166,52.21,60.74,33.84,35.85
"2017-04-28 16:50:00",285714,0.5,355.4,8.61,35.64,73.21725,0,857.0439,0,-5.943,3.189,191,6.603,3.783,11.85368,0.162,52.21,60.74,33.84,35.85
"2017-04-28 17:00:00",285715,0.461,270.7,8.54,37.23,49.34471,0,857.0439,0,-5.514,3.186,197,6.63,3.825,7.022019,0.141,52.21,60.74,33.84,35.85
"2017-04-28 17:10:00",285716,0.344,223.7,8.37,38.96,37.99012,0,857.0439,0,-5.82,3.19,202,6.621,3.868,5.354621,0.141,52.16,60.74,33.83,35.85
"2017-04-28 17:20:00",285717,0.419,270,8.13,38.09,40.83958,0,857.2188,0,-6.002,3.194,203,6.616,3.876,5.94579,0.145,52.16,60.68,33.83,35.83
"2017-04-28 17:30:00",285718,0.292,272,7.779,39.75,57.53935,0,857.2968,0,-6.411,3.2,190,6.615,3.876,9.761857,0.169,52.21,60.68,33.84,35.83
"2017-04-28 17:40:00",285719,0.054,249,7.7,42.3,61.52105,0,857.3051,0,-5.828,3.193,210,6.607,3.876,11.00867,0.179,52.16,60.68,33.83,35.83
"2017-04-28 17:50:00",285720,0.009,220.8,7.667,42.46,28.98275,0,857.3009,0,-4.927,3.186,234,6.634,3.88,4.354303,0.147,52.16,60.68,33.83,35.83
"2017-04-28 18:00:00",285721,0.057,178.9,7.404,43.47,17.10279,0,857.3115,0,-6.063,3.199,182,6.673,3.947,2.315696,0.135,52.1,60.68,33.81,35.83
"2017-04-28 18:10:00",285722,0.056,226.1,7.058,43.69,12.36758,0,857.3873,0,-6.456,3.204,194,6.709,4.011,1.694324,0.137,52.16,60.68,33.83,35.83
"2017-04-28 18:20:00",285723,0.062,208.1,6.815,45.21,7.320312,0,857.549,0,-5.984,3.201,197,6.753,4.054,0.9855671,0.136,52.1,60.68,33.81,35.83
"2017-04-28 18:30:00",285724,0.077,217.7,6.459,45.5,2.099444,0,857.613,0,-6.241,3.205,185,6.771,4.069,0.261562,0.094,52.1,60.68,33.81,35.83
"2017-04-28 18:40:00",285725,0.002,224.4,6.274,46.45,0,0,857.7786,0,-4.549,3.19,250,6.661,4.051,0,0,52.1,60.62,33.81,35.82
"2017-04-28 18:50:00",285726,0.008,108.7,5.766,50.54,0,0,857.8727,0,-5.664,3.205,202,6.679,4.059,0,0,52.1,60.62,33.81,35.82
"2017-04-28 19:00:00",285727,0.066,198.8,5.047,55.76,0,0,857.8884,0,-5.389,3.206,210,6.667,4.084,0,0,52.1,60.62,33.81,35.82
"2017-04-28 19:10:00",285728,0.163,187.9,4.646,57.44,0,0,858.0834,0,-6.043,3.214,209,6.588,4.137,0,0,52.1,60.68,33.81,35.83
"2017-04-28 19:20:00",285729,0.026,184.3,4.248,60.76,0,0,858.2065,0,-5.842,3.214,198,6.648,4.138,0,0,52.1,60.62,33.81,35.82
"2017-04-28 19:30:00",285730,0.148,173.8,4.048,60.16,0,0,858.3879,0,-5.641,3.212,181,6.539,4.164,0,0,52.05,60.62,33.8,35.82
"2017-04-28 19:40:00",285731,0.189,198.8,4.255,58.53,0,0,858.3942,0,-6.018,3.217,222,6.538,4.224,0.2009143,0,52.1,60.62,33.81,35.82
"2017-04-28 19:50:00",285732,0.312,196.9,4.004,59.63,0,0,858.5121,0,-5.842,3.215,193,6.453,4.223,0.04928087,0,52.1,60.62,33.81,35.82
"2017-04-28 20:00:00",285733,0.095,193.5,3.842,59.85,0,0,858.6702,0,-4.874,3.205,286,6.485,4.222,0.05686731,0,52.1,60.62,33.81,35.82
"2017-04-28 20:10:00",285734,0.345,198.4,3.886,58.39,0,0,858.9013,0,-5.975,3.217,199,6.449,4.28,0.1402831,0,52.05,60.56,33.8,35.81
"2017-04-28 20:20:00",285735,0.206,204.6,3.928,57.55,0,0,858.9208,0,-5.183,3.208,200,6.455,4.339,0.2275129,0,52.1,60.56,33.81,35.81
"2017-04-28 20:30:00",285736,0.247,199.8,4.062,55.58,0,0,858.9394,0,-5.79,3.217,192,6.422,4.366,0.2957768,0,52.1,60.56,33.81,35.81
"2017-04-28 20:40:00",285737,0.134,192.8,3.476,58.11,0,0,859.1525,0,-5.59,3.215,199,6.388,4.391,0,0,52.05,60.56,33.8,35.81
"2017-04-28 20:50:00",285738,0.295,185.2,3.272,59.43,0,0,859.2304,0,-5.489,3.216,196,6.316,4.4,0,0,52.1,60.5,33.81,35.79
"2017-04-28 21:00:00",285739,0.465,170.7,3.449,57.5,0,0,859.2367,0,-5.54,3.215,192,6.29,4.41,0.1668537,0,52.1,60.56,33.81,35.81
"2017-04-28 21:10:00",285740,0.355,166.5,3.683,55.56,0,0,859.2422,0,-5.34,3.211,194,6.233,4.444,0.2199436,0,52.05,60.5,33.8,35.79
"2017-04-28 21:20:00",285741,0.369,148.8,3.794,54.9,0,0,859.2435,0,-5.591,3.213,195,6.216,4.458,0.1403088,0,52.05,60.5,33.8,35.79
"2017-04-28 21:30:00",285742,0.264,152.9,4.085,52.35,0,0,859.1448,0,-5.591,3.212,201,6.204,4.521,0.2844098,0,52.05,60.5,33.8,35.79
"2017-04-28 21:40:00",285743,0.561,174.2,3.679,54.85,0,0,858.991,0,-5.189,3.21,202,6.142,4.508,0.00379213,0,52.05,60.5,33.8,35.79
"2017-04-28 21:50:00",285744,0.52,172.4,3.9,52.97,0,0,858.991,0,-5.063,3.207,179,6.111,4.49,0.1023875,0,52.05,60.5,33.8,35.79
"2017-04-28 22:00:00",285745,0.178,171,4.119,51.28,0,0,858.991,0,-4.886,3.205,227,6.063,4.487,0.06825834,0,52.05,60.5,33.8,35.79
"2017-04-28 22:10:00",285746,0.407,169.7,3.848,52.23,0,0,858.9825,0,-5.088,3.207,196,6.04,4.496,0.02275278,0,52.05,60.44,33.8,35.78
"2017-04-28 22:20:00",285747,0.402,178,3.759,52.55,0,0,858.9593,0,-4.433,3.202,237,5.981,4.534,0.01137639,0,52.05,60.5,33.8,35.79
"2017-04-28 22:30:00",285748,0.505,183.7,3.907,51.42,0,0,858.8329,0,-5.642,3.212,208,5.925,4.556,0.1061796,0,52.05,60.44,33.8,35.78
"2017-04-28 22:40:00",285749,0.276,183.2,4.281,49.56,0,0,858.776,0,-5.643,3.211,241,5.882,4.552,0.2540727,0,51.99,60.44,33.79,35.78
"2017-04-28 22:50:00",285750,0.286,183.2,4.17,50.24,0,0,858.738,0,-5.037,3.208,201,5.872,4.531,0.00379213,0,52.05,60.44,33.8,35.78
"2017-04-28 23:00:00",285751,0.116,183.6,4.096,50.39,0,0,858.738,0,-4.634,3.201,261,5.865,4.529,0.07963474,0,52.05,60.44,33.8,35.78
"2017-04-28 23:10:00",285752,0.08,164.8,4.182,50.26,0,0,858.738,0,-4.987,3.207,198,5.787,4.523,0.1137639,0,52.05,60.38,33.8,35.77
"2017-04-28 23:20:00",285753,0.132,145.5,3.792,51.75,0,0,858.738,0,-4.635,3.204,208,5.738,4.513,0.02275278,0,52.05,60.38,33.8,35.77
"2017-04-28 23:30:00",285754,0.135,125.4,4.042,50.64,0,0,858.738,0,-4.684,3.201,221,5.699,4.507,0.261657,0,52.05,60.38,33.8,35.77
"2017-04-28 23:40:00",285755,0.285,113.7,4.514,48.45,0,0,858.8265,0,-4.887,3.204,199,5.621,4.515,0.5991566,0,52.05,60.38,33.8,35.77
"2017-04-28 23:50:00",285756,0.422,109.8,4.295,49.53,0,0,858.8181,0,-4.383,3.199,192,5.624,4.528,0.1251403,0,52.05,60.38,33.8,35.77
